Spokane, WA

1:56 AM PDT on September 25, 2017 (GMT -0700)
Spokane International

Weather History for KGEG - May, 2013

Change the Weather History Date:

Saturday, May 4, 2013

  Actual Average Record
Temperature  
Mean Temperature 59 °F 52 °F  
Max Temperature 71 °F 63 °F 84 °F (1970)
Min Temperature 46 °F 40 °F 28 °F (1982)
Degree Days  
Heating Degree Days 6 14  
Month to date heating degree days 46 56  
Since 1 July heating degree days 5874 6192  
Cooling Degree Days 0 0  
Month to date cooling degree days 0 0  
Year to date cooling degree days 0 0  
Growing Degree Days 8 (Base 50)    
Moisture  
Dew Point 31 °F    
Average Humidity 45    
Maximum Humidity 71    
Minimum Humidity 18    
Precipitation  
Precipitation T in 0.04 in 0.75 in (1888)
Month to date precipitation T 0.16  
Year to date precipitation 4.13 6.17  
Snow  
Snow 0.00 in 0.00 in 0.30 in (1981)
Month to date snowfall 0.0 0.0  
Since 1 July snowfall 43.5 44.8  
Snow Depth 0.00 in    
Sea Level Pressure  
Sea Level Pressure 30.17 in    
Wind  
Wind Speed 11 mph (NE)    
Max Wind Speed 23 mph    
Max Gust Speed 32 mph    
Visibility 10 miles    
Events Rain    
T = Trace of Precipitation, MM = Missing Value Source: NWS Daily Summary

Daily Weather History Graph

Daily Weather History Graph

Search for Another Location

Airport or City:

Trip Planner

Search our weather history database for the weather conditions in past years. The results will help you decide how hot, cold, wet, or windy it might be!

Date:

Astronomy

May. 04, 2013 Rise Set
Actual Time 5:27 AM PDT 8:06 PM PDT
Civil Twilight 4:52 AM PDT 8:42 PM PDT
Nautical Twilight 4:08 AM PDT 9:26 PM PDT
Astronomical Twilight 3:17 AM PDT 10:18 PM PDT
Moon 2:51 AM PDT (5/4) 2:49 PM PDT (5/4)
Length of Visible Light 15h 49m
Length of Day
14h 39m
Waning Crescent, 26% of the Moon is Illuminated
May 4
Waning Crescent
May 9
New
May 17
First Quarter
May 24
Full
May 31
Last Quarter

Hourly Weather History & Observations

Time (PDT) Temp. Windchill Dew Point Humidity Pressure Visibility Wind Dir Wind Speed Gust Speed Precip Events Conditions
12:53 AM 55.9 °F - 35.1 °F 45% 30.22 in 10.0 mi East 4.6 mph - N/A   Mostly Cloudy
1:53 AM 55.9 °F - 37.9 °F 51% 30.23 in 10.0 mi North 3.5 mph - 0.00 in Rain Light Rain
2:53 AM 53.1 °F - 37.9 °F 57% 30.23 in 10.0 mi ENE 3.5 mph - 0.00 in   Scattered Clouds
3:53 AM 48.0 °F - 37.9 °F 68% 30.25 in 10.0 mi NNE 4.6 mph - N/A   Scattered Clouds
4:53 AM 50.0 °F - 37.9 °F 63% 30.25 in 10.0 mi ENE 6.9 mph - N/A   Partly Cloudy
5:53 AM 46.0 °F 43.1 °F 37.9 °F 73% 30.25 in 10.0 mi NNE 5.8 mph - N/A   Partly Cloudy
6:53 AM 51.1 °F - 37.9 °F 61% 30.26 in 10.0 mi ENE 5.8 mph - N/A   Partly Cloudy
7:53 AM 55.9 °F - 37.9 °F 51% 30.26 in 10.0 mi NNE 5.8 mph - N/A   Scattered Clouds
8:53 AM 59.0 °F - 37.0 °F 44% 30.26 in 10.0 mi NE 11.5 mph - N/A   Clear
9:53 AM 62.1 °F - 35.1 °F 37% 30.24 in 10.0 mi ENE 13.8 mph 19.6 mph N/A   Partly Cloudy
10:53 AM 64.9 °F - 28.0 °F 25% 30.22 in 10.0 mi NE 20.7 mph 27.6 mph N/A   Partly Cloudy
11:53 AM 66.0 °F - 27.0 °F 23% 30.21 in 10.0 mi ENE 11.5 mph 23.0 mph N/A   Partly Cloudy
12:53 PM 66.9 °F - 27.0 °F 22% 30.18 in 10.0 mi East 12.7 mph - N/A   Scattered Clouds
1:53 PM 70.0 °F - 25.0 °F 18% 30.15 in 10.0 mi NNE 15.0 mph 23.0 mph N/A   Partly Cloudy
2:53 PM 70.0 °F - 25.0 °F 18% 30.14 in 10.0 mi ENE 18.4 mph 29.9 mph N/A   Scattered Clouds
3:53 PM 71.1 °F - 26.1 °F 19% 30.12 in 10.0 mi NE 18.4 mph 24.2 mph N/A   Scattered Clouds
4:53 PM 70.0 °F - 25.0 °F 18% 30.11 in 10.0 mi NE 9.2 mph 21.9 mph N/A   Scattered Clouds
5:53 PM 70.0 °F - 24.1 °F 18% 30.09 in 10.0 mi ENE 18.4 mph 24.2 mph N/A   Scattered Clouds
6:53 PM 68.0 °F - 24.1 °F 19% 30.08 in 10.0 mi NE 15.0 mph 19.6 mph N/A   Scattered Clouds
7:53 PM 66.0 °F - 24.1 °F 20% 30.07 in 10.0 mi ENE 17.3 mph - N/A   Partly Cloudy
8:53 PM 63.0 °F - 26.1 °F 25% 30.08 in 10.0 mi NE 9.2 mph - N/A   Partly Cloudy
9:53 PM 61.0 °F - 26.1 °F 26% 30.09 in 10.0 mi ENE 8.1 mph - N/A   Clear
10:53 PM 60.1 °F - 28.0 °F 30% 30.07 in 10.0 mi ENE 11.5 mph - N/A   Clear
11:53 PM 57.9 °F - 28.0 °F 32% 30.07 in 10.0 mi ENE 9.2 mph - N/A   Clear